Time,TemperatureF,DewpointF,PressureIn,WindDirection,WindDirectionDegrees,WindSpeedMPH,WindSpeedGustMPH,Humidity,HourlyPrecipIn,Conditions,Clouds,dailyrainin,SoftwareType,DateUTC
2013-06-03 00:12:00,52.7,49.0,30.11,WNW,284,0.0,6.0,86,0.00,,,0.00,weatherlink.com 1.10,2013-06-03 05:12:00,
2013-06-03 00:27:00,52.1,48.0,30.11,WNW,284,0.0,0.0,85,0.00,,,0.00,weatherlink.com 1.10,2013-06-03 05:27:00,
2013-06-03 00:42:00,51.7,48.0,30.11,WNW,284,0.0,0.0,86,0.00,,,0.00,weatherlink.com 1.10,2013-06-03 05:42:00,
2013-06-03 00:57:00,51.0,47.0,30.11,WNW,284,0.0,4.0,86,0.00,,,0.00,weatherlink.com 1.10,2013-06-03 05:57:00,
2013-06-03 01:12:00,50.9,47.0,30.11,WNW,284,0.0,1.0,87,0.00,,,0.00,weatherlink.com 1.10,2013-06-03 06:12:00,
2013-06-03 01:27:00,51.0,48.0,30.11,WNW,284,0.0,6.0,89,0.00,,,0.00,weatherlink.com 1.10,2013-06-03 06:27:00,
2013-06-03 01:42:00,50.5,47.0,30.11,WNW,284,0.0,0.0,89,0.00,,,0.00,weatherlink.com 1.10,2013-06-03 06:42:00,
2013-06-03 01:57:00,50.1,47.0,30.11,WNW,284,0.0,0.0,89,0.00,,,0.00,weatherlink.com 1.10,2013-06-03 06:57:00,
2013-06-03 02:12:00,49.7,47.0,30.11,WNW,284,5.0,6.0,89,0.00,,,0.00,weatherlink.com 1.10,2013-06-03 07:12:00,
2013-06-03 02:27:00,49.6,47.0,30.11,WNW,284,0.0,0.0,89,0.00,,,0.00,weatherlink.com 1.10,2013-06-03 07:27:00,
2013-06-03 02:42:00,49.6,47.0,30.11,WNW,284,0.0,4.0,89,0.00,,,0.00,weatherlink.com 1.10,2013-06-03 07:42:00,
2013-06-03 02:57:00,49.2,47.0,30.12,WNW,284,0.0,0.0,90,0.00,,,0.00,weatherlink.com 1.10,2013-06-03 07:57:00,
2013-06-03 03:12:00,49.2,47.0,30.12,WNW,284,0.0,4.0,91,0.00,,,0.00,weatherlink.com 1.10,2013-06-03 08:12:00,
2013-06-03 03:27:00,49.1,47.0,30.12,WNW,284,4.0,6.0,92,0.00,,,0.00,weatherlink.com 1.10,2013-06-03 08:27:00,
2013-06-03 03:42:00,49.0,47.0,30.12,WNW,284,0.0,1.0,92,0.00,,,0.00,weatherlink.com 1.10,2013-06-03 08:42:00,
2013-06-03 03:57:00,48.9,47.0,30.12,WNW,284,0.0,7.0,92,0.00,,,0.00,weatherlink.com 1.10,2013-06-03 08:57:00,
2013-06-03 04:12:00,48.9,47.0,30.12,WNW,284,5.0,6.0,93,0.00,,,0.00,weatherlink.com 1.10,2013-06-03 09:12:00,
2013-06-03 04:27:00,49.0,47.0,30.12,West,259,6.0,7.0,93,0.00,,,0.00,weatherlink.com 1.10,2013-06-03 09:27:00,
2013-06-03 04:42:00,48.8,47.0,30.12,West,259,6.0,6.0,94,0.00,,,0.00,weatherlink.com 1.10,2013-06-03 09:42:00,
2013-06-03 04:57:00,48.6,47.0,30.12,West,259,3.0,7.0,94,0.00,,,0.00,weatherlink.com 1.10,2013-06-03 09:57:00,
2013-06-03 05:12:00,48.6,47.0,30.12,West,259,0.0,7.0,95,0.00,,,0.00,weatherlink.com 1.10,2013-06-03 10:12:00,
2013-06-03 05:27:00,48.9,48.0,30.13,West,259,4.0,6.0,95,0.00,,,0.00,weatherlink.com 1.10,2013-06-03 10:27:00,
2013-06-03 05:42:00,49.2,48.0,30.13,West,259,4.0,5.0,95,0.00,,,0.00,weatherlink.com 1.10,2013-06-03 10:42:00,
2013-06-03 05:57:00,48.8,48.0,30.14,West,259,0.0,5.0,95,0.00,,,0.00,weatherlink.com 1.10,2013-06-03 10:57:00,
2013-06-03 06:12:00,48.8,48.0,30.14,West,259,0.0,6.0,95,0.00,,,0.00,weatherlink.com 1.10,2013-06-03 11:12:00,
2013-06-03 06:27:00,48.8,48.0,30.15,West,259,6.0,7.0,95,0.00,,,0.00,weatherlink.com 1.10,2013-06-03 11:27:00,
2013-06-03 06:43:00,48.9,48.0,30.15,West,259,0.0,4.0,95,0.00,,,0.00,weatherlink.com 1.10,2013-06-03 11:43:00,
2013-06-03 06:58:00,49.2,48.0,30.15,West,259,4.0,5.0,96,0.00,,,0.00,weatherlink.com 1.10,2013-06-03 11:58:00,
2013-06-03 07:13:00,50.0,49.0,30.15,West,259,0.0,4.0,96,0.00,,,0.00,weatherlink.com 1.10,2013-06-03 12:13:00,
2013-06-03 07:28:00,50.6,49.0,30.15,West,259,0.0,5.0,95,0.00,,,0.00,weatherlink.com 1.10,2013-06-03 12:28:00,
2013-06-03 07:43:00,51.5,50.0,30.16,West,259,0.0,5.0,95,0.00,,,0.00,weatherlink.com 1.10,2013-06-03 12:43:00,
2013-06-03 07:58:00,52.3,51.0,30.16,West,259,0.0,5.0,94,0.00,,,0.00,weatherlink.com 1.10,2013-06-03 12:58:00,
2013-06-03 08:13:00,53.5,51.0,30.16,West,259,4.0,8.0,91,0.00,,,0.00,weatherlink.com 1.10,2013-06-03 13:13:00,
2013-06-03 08:28:00,54.4,51.0,30.16,West,259,1.0,7.0,87,0.00,,,0.00,weatherlink.com 1.10,2013-06-03 13:28:00,
2013-06-03 08:43:00,55.2,51.0,30.16,SW,236,8.0,9.0,86,0.00,,,0.00,weatherlink.com 1.10,2013-06-03 13:43:00,
2013-06-03 08:58:00,56.0,51.0,30.16,SW,232,0.0,8.0,83,0.00,,,0.00,weatherlink.com 1.10,2013-06-03 13:58:00,
2013-06-03 09:13:00,57.7,51.0,30.16,SW,232,6.0,7.0,79,0.00,,,0.00,weatherlink.com 1.10,2013-06-03 14:13:00,
2013-06-03 09:28:00,58.9,51.0,30.16,SW,232,0.0,9.0,76,0.00,,,0.00,weatherlink.com 1.10,2013-06-03 14:28:00,
2013-06-03 09:43:00,60.5,51.0,30.16,SW,232,1.0,7.0,70,0.00,,,0.00,weatherlink.com 1.10,2013-06-03 14:43:00,
2013-06-03 09:58:00,61.2,50.0,30.15,SW,232,0.0,8.0,68,0.00,,,0.00,weatherlink.com 1.10,2013-06-03 14:58:00,
2013-06-03 10:13:00,61.9,50.0,30.15,SW,217,0.0,8.0,66,0.00,,,0.00,weatherlink.com 1.10,2013-06-03 15:13:00,
2013-06-03 10:28:00,62.5,50.0,30.15,SW,217,4.0,8.0,65,0.00,,,0.00,weatherlink.com 1.10,2013-06-03 15:28:00,
2013-06-03 10:43:00,63.4,50.0,30.14,SW,215,0.0,7.0,61,0.00,,,0.00,weatherlink.com 1.10,2013-06-03 15:43:00,
2013-06-03 10:58:00,64.8,50.0,30.14,SW,215,6.0,8.0,59,0.00,,,0.00,weatherlink.com 1.10,2013-06-03 15:58:00,
2013-06-03 11:13:00,65.9,50.0,30.14,SW,215,3.0,6.0,57,0.00,,,0.00,weatherlink.com 1.10,2013-06-03 16:13:00,
2013-06-03 11:28:00,66.9,50.0,30.14,SW,217,4.0,6.0,54,0.00,,,0.00,weatherlink.com 1.10,2013-06-03 16:28:00,
2013-06-03 11:44:00,68.2,43.0,30.13,SW,217,0.0,9.0,41,0.00,,,0.00,weatherlink.com 1.10,2013-06-03 16:44:00,
2013-06-03 11:59:00,66.5,45.0,30.12,SW,224,5.0,9.0,46,0.00,,,0.00,weatherlink.com 1.10,2013-06-03 16:59:00,
2013-06-03 12:14:00,66.2,46.0,30.11,SW,229,5.0,8.0,49,0.00,,,0.00,weatherlink.com 1.10,2013-06-03 17:14:00,
2013-06-03 12:29:00,65.8,44.0,30.11,WSW,240,0.0,8.0,46,0.00,,,0.00,weatherlink.com 1.10,2013-06-03 17:29:00,
2013-06-03 12:44:00,67.0,43.0,30.11,WSW,238,2.0,9.0,42,0.00,,,0.00,weatherlink.com 1.10,2013-06-03 17:44:00,
2013-06-03 12:59:00,68.3,43.0,30.11,SW,221,4.0,10.0,40,0.00,,,0.00,weatherlink.com 1.10,2013-06-03 17:59:00,
2013-06-03 13:14:00,67.8,43.0,30.10,SSW,213,0.0,7.0,40,0.00,,,0.00,weatherlink.com 1.10,2013-06-03 18:14:00,
2013-06-03 13:29:00,68.5,43.0,30.10,SW,224,1.0,10.0,40,0.00,,,0.00,weatherlink.com 1.10,2013-06-03 18:29:00,
2013-06-03 13:44:00,70.7,44.0,30.09,SW,224,4.0,4.0,39,0.00,,,0.00,weatherlink.com 1.10,2013-06-03 18:44:00,
2013-06-03 13:59:00,69.8,43.0,30.09,SW,234,6.0,9.0,38,0.00,,,0.00,weatherlink.com 1.10,2013-06-03 18:59:00,
2013-06-03 14:14:00,69.3,43.0,30.09,WSW,243,7.0,9.0,39,0.00,,,0.00,weatherlink.com 1.10,2013-06-03 19:14:00,
2013-06-03 14:29:00,69.4,43.0,30.08,SW,236,8.0,11.0,39,0.00,,,0.00,weatherlink.com 1.10,2013-06-03 19:29:00,
2013-06-03 14:44:00,69.9,43.0,30.08,WSW,241,0.0,9.0,38,0.00,,,0.00,weatherlink.com 1.10,2013-06-03 19:44:00,
2013-06-03 14:59:00,69.9,44.0,30.08,WSW,252,0.0,7.0,39,0.00,,,0.00,weatherlink.com 1.10,2013-06-03 19:59:00,
2013-06-03 15:14:00,69.3,43.0,30.08,WSW,248,6.0,8.0,39,0.00,,,0.00,weatherlink.com 1.10,2013-06-03 20:14:00,
2013-06-03 15:29:00,68.1,44.0,30.08,WSW,240,2.0,8.0,42,0.00,,,0.00,weatherlink.com 1.10,2013-06-03 20:29:00,
2013-06-03 15:44:00,67.4,43.0,30.08,West,260,6.0,9.0,42,0.00,,,0.00,weatherlink.com 1.10,2013-06-03 20:44:00,
2013-06-03 15:59:00,67.0,42.0,30.08,West,265,1.0,8.0,41,0.00,,,0.00,weatherlink.com 1.10,2013-06-03 20:59:00,
2013-06-03 16:14:00,67.3,44.0,30.07,West,265,7.0,8.0,43,0.00,,,0.00,weatherlink.com 1.10,2013-06-03 21:14:00,
2013-06-03 16:29:00,67.6,45.0,30.06,West,263,4.0,7.0,45,0.00,,,0.00,weatherlink.com 1.10,2013-06-03 21:29:00,
2013-06-03 16:44:00,68.6,45.0,30.07,WSW,258,0.0,9.0,43,0.00,,,0.00,weatherlink.com 1.10,2013-06-03 21:44:00,
2013-06-03 16:59:00,69.6,44.0,30.07,NW,317,0.0,8.0,40,0.00,,,0.00,weatherlink.com 1.10,2013-06-03 21:59:00,
2013-06-03 17:14:00,69.6,45.0,30.07,NW,317,4.0,5.0,41,0.00,,,0.00,weatherlink.com 1.10,2013-06-03 22:14:00,
2013-06-03 17:29:00,68.6,44.0,30.07,NW,317,0.0,6.0,42,0.00,,,0.00,weatherlink.com 1.10,2013-06-03 22:29:00,
2013-06-03 17:44:00,69.0,44.0,30.07,NW,316,5.0,8.0,41,0.00,,,0.00,weatherlink.com 1.10,2013-06-03 22:44:00,
2013-06-03 17:59:00,69.0,44.0,30.07,NW,307,0.0,7.0,41,0.00,,,0.00,weatherlink.com 1.10,2013-06-03 22:59:00,
2013-06-03 18:14:00,70.4,45.0,30.06,NW,307,0.0,6.0,40,0.00,,,0.00,weatherlink.com 1.10,2013-06-03 23:14:00,
2013-06-03 18:29:00,70.7,44.0,30.06,NNW,334,0.0,8.0,39,0.00,,,0.00,weatherlink.com 1.10,2013-06-03 23:29:00,
2013-06-03 18:44:00,70.5,45.0,30.06,NNW,333,0.0,7.0,40,0.00,,,0.00,weatherlink.com 1.10,2013-06-03 23:44:00,
2013-06-03 18:59:00,69.0,45.0,30.06,NNW,334,0.0,5.0,43,0.00,,,0.00,weatherlink.com 1.10,2013-06-03 23:59:00,
2013-06-03 19:14:00,69.2,45.0,30.06,NNW,333,5.0,5.0,42,0.00,,,0.00,weatherlink.com 1.10,2013-06-04 00:14:00,
2013-06-03 19:29:00,68.3,45.0,30.06,North,5,0.0,9.0,43,0.00,,,0.00,weatherlink.com 1.10,2013-06-04 00:29:00,
2013-06-03 19:44:00,68.1,47.0,30.07,North,5,0.0,5.0,47,0.00,,,0.00,weatherlink.com 1.10,2013-06-04 00:44:00,
2013-06-03 19:59:00,67.7,47.0,30.05,North,5,6.0,7.0,47,0.00,,,0.00,weatherlink.com 1.10,2013-06-04 00:59:00,
2013-06-03 20:14:00,66.7,47.0,30.03,East,79,7.0,11.0,50,0.00,,,0.00,weatherlink.com 1.10,2013-06-04 01:14:00,
2013-06-03 20:29:00,66.2,46.0,30.06,East,79,4.0,8.0,49,0.00,,,0.00,weatherlink.com 1.10,2013-06-04 01:29:00,
2013-06-03 20:44:00,66.5,47.0,30.06,East,79,1.0,5.0,49,0.00,,,0.00,weatherlink.com 1.10,2013-06-04 01:44:00,
2013-06-03 20:59:00,66.1,47.0,30.07,East,79,0.0,6.0,50,0.00,,,0.00,weatherlink.com 1.10,2013-06-04 01:59:00,
2013-06-03 21:14:00,65.6,47.0,30.08,East,79,1.0,2.0,51,0.00,,,0.00,weatherlink.com 1.10,2013-06-04 02:14:00,
2013-06-03 21:29:00,65.2,48.0,30.09,East,79,0.0,5.0,54,0.00,,,0.00,weatherlink.com 1.10,2013-06-04 02:29:00,
2013-06-03 21:44:00,64.4,48.0,30.10,East,79,0.0,4.0,55,0.00,,,0.00,weatherlink.com 1.10,2013-06-04 02:44:00,
2013-06-03 21:59:00,63.1,48.0,30.10,East,79,1.0,3.0,59,0.00,,,0.00,weatherlink.com 1.10,2013-06-04 02:59:00,
2013-06-03 22:14:00,62.6,48.0,30.11,East,79,0.0,0.0,60,0.00,,,0.00,weatherlink.com 1.10,2013-06-04 03:14:00,
2013-06-03 22:32:00,62.7,53.0,30.12,East,79,0.0,1.0,71,0.00,,,0.00,weatherlink.com 1.10,2013-06-04 03:32:00,
2013-06-03 22:44:00,62.4,54.0,30.12,East,79,0.0,0.0,74,0.00,,,0.00,weatherlink.com 1.10,2013-06-04 03:44:00,
2013-06-03 22:59:00,62.1,54.0,30.12,East,79,0.0,0.0,74,0.00,,,0.00,weatherlink.com 1.10,2013-06-04 03:59:00,
2013-06-03 23:14:00,62.0,54.0,30.13,East,79,0.0,0.0,74,0.00,,,0.00,weatherlink.com 1.10,2013-06-04 04:14:00,
2013-06-03 23:29:00,61.5,53.0,30.13,East,79,0.0,0.0,74,0.00,,,0.00,weatherlink.com 1.10,2013-06-04 04:29:00,
2013-06-03 23:44:00,61.3,53.0,30.13,East,79,0.0,0.0,74,0.00,,,0.00,weatherlink.com 1.10,2013-06-04 04:44:00,
2013-06-03 23:59:00,61.6,53.0,30.13,East,79,0.0,0.0,73,0.00,,,0.00,weatherlink.com 1.10,2013-06-04 04:59:00,